Location: Albany
(35.0000°S, 118.0000°E)
Time: 11:50:47
(UTC-04:00)

SJ-6B - Visible Passes

Search period start: 27 May 2015 00:00
Search period end: 06 June 2015 00:00
Orbit: 514 x 591 km, 97.8° (Epoch: 26 May)

Date Brightness Start Highest point End Pass type
(mag) Time Alt. Az. Time Alt. Az. Time Alt. Az.
27 May 4.8 05:39:35 10° ESE 05:41:34 13° E 05:43:47 10° ENE visible
27 May 4.2 07:14:31 24° SSW 07:16:36 41° WSW 07:20:32 10° NW visible
27 May 3.1 17:54:15 10° NNE 17:58:06 71° ESE 18:02:06 10° S visible
28 May 4.9 05:36:33 10° ESE 05:38:08 12° E 05:39:57 10° ENE visible
28 May 4.0 07:11:09 25° SSW 07:13:13 45° WSW 07:17:13 10° NNW visible
28 May 3.3 17:50:51 10° NNE 17:54:41 63° ESE 17:58:40 10° S visible
29 May 4.9 05:33:41 10° ESE 05:34:41 11° E 05:35:57 10° ENE visible
29 May 3.8 07:07:48 27° SSW 07:09:49 50° WSW 07:13:53 10° NNW visible
29 May 3.5 17:47:28 10° NNE 17:51:17 57° ESE 17:55:16 10° S visible
30 May 3.6 07:04:25 28° S 07:06:26 56° WSW 07:10:32 10° NNW visible
30 May 3.7 17:44:06 10° NNE 17:47:52 51° ESE 17:51:49 10° S visible
31 May 3.4 07:01:03 29° S 07:03:03 62° WSW 07:07:10 10° NNW visible
31 May 3.9 17:40:44 10° NNE 17:44:29 46° ESE 17:48:23 10° S visible
01 Jun 3.2 06:57:41 30° S 06:59:39 69° WSW 07:03:47 10° NNW visible
01 Jun 4.1 17:37:23 10° NE 17:41:04 41° ESE 17:44:56 10° S visible
02 Jun 3.0 06:54:18 31° S 06:56:15 76° WSW 07:00:24 10° NNW visible
02 Jun 4.3 17:34:02 10° NE 17:37:40 37° ESE 17:41:29 10° S visible
03 Jun 2.9 06:50:55 32° S 06:52:50 84° WSW 06:57:00 10° NNW visible
03 Jun 4.5 17:30:42 10° NE 17:34:16 34° ESE 17:38:01 10° S visible
04 Jun 2.8 06:47:31 32° SSE 06:49:26 88° E 06:53:36 10° NNW visible
04 Jun 4.7 17:27:23 10° NE 17:30:52 31° ESE 17:34:32 10° S visible
05 Jun 2.8 06:44:08 32° SSE 06:46:02 80° ENE 06:50:10 10° N visible
05 Jun 4.9 17:24:04 10° NE 17:27:28 28° ESE 17:31:03 10° SSE visible
